Location: Potomac
(46.8816°N, 113.5795°W)
Time: 08:25:03
(UTC+00:00)

NANOSAT C BR1 - Pass Details

Date: 29 June 2022
Orbit: 584 x 599 km, 98.0° (Epoch: 09 August)

Event Time Altitude Azimuth Distance (km) Brightness Sun altitude
Rises 10:31:36 0° 5° (N) 2,847 ? -9.7°
Reaches altitude 10° 10:33:55 10° 356° (N) 1,943 ? -9.4°
Maximum altitude 10:37:42 33° 292° (WNW) 1,014 ? -9.0°
Enters shadow 10:41:18 11° 229° (SW) 1,870 ? -8.6°
